EW2348 Weather Reports


Display with metric or nautical units.
time (UTC)temp
F
wind
direction
speed
MPH
gust
MPH
rain 1hr
in
rain 24hr
in
rain mn
in
humidity
%
barometer
mb
20140424022013 52 0 0.0 0.0 0.00 0.00 0.20 52 1018.1
20140424021013 52 0 0.0 0.0 0.00 0.00 0.20 50 1018.3
20140424020012 53 0 0.0 0.0 0.00 0.00 0.20 48 1018.3
20140424015013 53 0 0.0 0.0 0.00 0.00 0.20 48 1018.1
20140424013012 52 0 0.0 0.0 0.00 0.00 0.20 48 1018.1
20140424010012 55 0 0.0 0.0 0.00 0.00 0.20 42 1017.8
20140424005012 55 0 0.0 0.0 0.00 0.00 0.20 42 1017.3
20140424004011 55 0 0.0 0.0 0.00 0.00 0.20 42 1017.4
20140424003011 55 0 0.0 0.0 0.00 0.00 0.20 42 1017.3
20140424002012 56 0 0.0 0.0 0.00 0.00 0.20 41 1017.2
20140424001011 64 0 0.0 0.0 0.00 0.00 0.20 32 1017.1
20140424000011 64 0 0.0 0.0 0.00 0.00 0.20 32 1017.0
20140423235011 64 0 0.0 0.0 0.00 0.00 0.20 32 1016.9
20140423234010 64 0 0.0 0.0 0.00 0.00 0.20 32 1017.0
20140423223010 67 0 0.0 0.0 0.00 0.00 0.20 29 1017.0
20140423221009 67 0 0.0 0.0 0.00 0.00 0.20 29 1017.1
20140423220011 67 0 0.0 0.0 0.00 0.00 0.20 33 1016.9
20140423213009 67 0 0.0 0.0 0.00 0.00 0.20 31 1016.9
20140423212010 66 0 0.0 0.0 0.00 0.00 0.20 30 1017.1
20140423210009 -7 0 0.0 0.0 0.00 0.00 0.20 60 1017.1
20140423203009 66 314 0.0 12.0 0.00 0.00 0.20 33 1017.2
20140423202009 65 0 0.0 0.0 0.00 0.00 0.20 29 1017.3
20140423200008 65 0 0.0 0.0 0.00 0.00 0.20 30 1017.5
20140423195008 64 0 0.0 0.0 0.00 0.00 0.20 35 1017.7
20140423194008 0 0 0.0 0.0 0.00 0.00 0.20 32 1017.7
20140423192008 62 0 0.0 0.0 0.00 0.00 0.20 35 1017.6
20140423191008 62 0 0.0 0.0 0.00 0.00 0.20 35 1017.8
20140423184007 62 0 0.0 0.0 0.00 0.00 0.20 37 1017.6
20140423183008 62 0 0.0 0.0 0.00 0.00 0.20 36 1017.7
20140423182007 62 0 6.0 0.0 1.52 1.52 0.20 36 1017.8
20140423180007 4 0 0.0 0.0 1.51 1.51 0.20 33 1018.0
20140423175007 59 0 0.0 0.0 0.00 0.00 0.20 40 1018.1
20140423173007 6 0 97.0 0.0 0.00 0.00 0.20 37 1018.3
20140423172007 58 0 0.0 0.0 0.00 0.00 0.20 38 1018.3
20140423170006 58 0 0.0 0.0 0.00 0.00 0.20 34 1018.7
20140423165006 56 0 0.0 0.0 0.00 0.00 0.20 10 1018.9
20140423164007 57 0 0.0 0.0 0.00 0.00 0.20 35 1018.9
20140423163006 57 0 0.0 0.0 0.00 0.00 0.20 41 1019.0
20140423161006 55 0 0.0 0.0 0.00 0.00 0.20 38 1018.9
20140423155006 56 0 0.0 0.0 0.00 0.00 0.20 40 1018.9
20140423153005 55 0 0.0 0.0 0.00 0.00 0.20 42 1018.7
20140423152006 10 0 0.0 0.0 0.76 0.76 0.20 43 1018.7
20140423150005 12 135 6.0 3.0 0.01 0.01 0.20 46 1018.8
20140423145005 12 135 6.0 3.0 0.01 0.01 0.20 46 1018.7
20140423144005 53 0 0.0 0.0 0.00 0.00 0.19 44 1018.5
20140423141004 51 0 0.0 0.0 0.00 0.00 0.19 49 1018.5
20140423135005 51 0 0.0 0.0 0.00 0.00 0.19 50 1018.3
20140423134004 49 0 0.0 0.0 0.00 0.00 0.19 54 1018.3
20140423130004 47 0 0.0 0.0 0.00 0.00 0.19 58 1018.1
20140423125004 47 0 0.0 0.0 0.00 0.00 0.19 58 1018.0
20140423123004 45 0 0.0 0.0 0.00 0.00 0.19 64 1017.8
20140423122004 44 0 0.0 0.0 0.00 0.00 0.19 64 1017.7
20140423121003 45 0 0.0 0.0 0.00 0.00 0.19 64 1017.5
20140423114018 40 0 0.0 0.0 0.00 0.00 0.19 77 1017.2
20140423104017 38 0 0.0 0.0 0.00 0.00 0.00 83 1016.2
20140423103018 38 0 0.0 0.0 0.00 0.00 0.00 82 1016.0
20140423102018 38 0 0.0 0.0 0.00 0.00 0.00 82 1015.9
20140423100018 38 0 0.0 0.0 0.00 0.00 0.00 81 1015.8
20140423095017 39 0 0.0 0.0 0.00 0.00 0.00 80 1015.7
20140423094017 39 0 0.0 0.0 0.00 0.00 0.00 79 1015.6
20140423093017 39 0 0.0 0.0 0.00 0.00 0.00 78 1015.4
20140423091017 40 0 0.0 0.0 0.00 0.00 0.00 78 1015.3
20140423090017 40 0 0.0 0.0 0.00 0.00 0.00 77 1015.0
20140423085017 40 0 0.0 0.0 0.00 0.00 0.00 77 1015.1
20140423083017 40 0 0.0 0.0 0.00 0.00 0.00 76 1014.9
20140423080017 41 0 0.0 0.0 0.00 0.00 0.00 74 1014.7
20140423075016 41 0 0.0 0.0 0.00 0.00 0.00 73 1014.8
20140423074016 41 0 0.0 0.0 0.00 0.00 0.00 72 1014.8
20140423073015 42 0 0.0 0.0 0.00 0.00 0.00 70 1014.8
20140423072016 42 0 0.0 0.0 0.00 0.00 0.00 68 1014.9
20140423071016 42 0 0.0 0.0 0.00 0.00 0.00 67 1014.7
20140423070015 42 0 0.0 0.0 0.00 0.00 0.00 67 1014.8
20140423065015 43 0 0.0 0.0 0.00 0.00 0.00 66 1014.7
20140423064015 43 0 0.0 0.0 0.00 0.00 0.00 66 1014.8
20140423062015 43 0 0.0 0.0 0.00 0.00 0.00 65 1014.7
20140423061015 43 0 0.0 0.0 0.00 0.00 0.00 65 1014.7
20140423060015 43 0 0.0 0.0 0.00 0.00 0.00 65 1014.6
20140423054015 44 0 0.0 0.0 0.00 0.00 0.00 62 1014.5
20140423053014 44 0 0.0 0.0 0.00 0.00 0.00 62 1014.6
20140423051014 45 0 0.0 0.0 0.00 0.00 0.00 60 1014.7
20140423050014 46 0 0.0 0.0 0.00 0.00 0.00 60 1014.5
20140423043013 47 0 0.0 0.0 0.00 0.00 0.00 58 1014.4
20140423042014 47 0 0.0 0.0 0.00 0.00 0.00 58 1014.5
20140423041014 47 0 0.0 0.0 0.00 0.00 0.00 57 1014.4
20140423034013 49 0 0.0 0.0 0.00 0.00 0.00 55 1014.4
20140423033015 49 0 0.0 0.0 0.00 0.00 0.00 53 1014.3
20140423032013 49 0 0.0 0.0 0.00 0.00 0.00 52 1014.3